BEIDOU-2 IGSO-2 (C07)

Last updated on Sat Aug 15 2026 00:03:26 GMT+0000 (Coordinated Universal Time)

1 37256U 10068A 26226.50601978 -.00000182 00000+0 00000+0 0 9992 2 37256 47.4412 271.1013 0057479 215.2006 126.4637 1.00263519 57378
UTC large
Height (km)
Speed (km/s)
/
Latitude / Longitude
Inclination (degrees)
Orbital Period (minutes)
Azimuth
Elevation
Range (km)
Doppler Factor

Next 0 passes for location: London (51.5072 / 0.1276)

No passes found over London.
BEIDOU-2 IGSO-2 (C07)